Flag for Canada Weather past 2 weeks in Iqaluit, Nunavut Territory, Canada

Now
-9 °F

Snow flurries. Scattered clouds.


Feels Like: -9 °F
Forecast: -27 / -1 °F
Wind: No wind

Location: Iqaluit

Current Time: Mar 31, 2015 at 1:29:09 PM

Latest Report: Mar 31, 2015 at 1:00 PM


Visibility: 20 mi

Pressure: 29.94 "Hg

Humidity: 64%

Dew point: -18 °F

Location of IqaluitLocation

Historic Weather in Iqaluit — Graph

°F

Iqaluit temperature yesterday

Maximum temperature yesterday: -9 °F (at 5:00 PM)
Minimum temperature yesterday: -26 °F (at 4:00 AM)
Average temperature yesterday: -18 °F

Past Weeks' High & Low Weather Summary

 TemperatureHumidityPressure
High21 °F (Mar 16, 12:00 PM)86% (Mar 17, 1:00 AM)30.11 "Hg (Mar 17, 1:00 AM)
Low-26 °F (Mar 30, 4:00 AM)57% (Mar 24, 2:00 PM)29.35 "Hg (Mar 28, 2:00 PM)
Average-7 °F69%29.74 "Hg
* Reported Mar 16 12:00 Noon — Mar 31 12:00 Noon, Iqaluit, Weather by CustomWeather, © 2015

Note: Actual official high and low records may vary slightly from our data, if they occured in-between our weather recording intervals... More about our weather records

Advertising

Iqaluit weather history for previous 24 hours

 ConditionsComfort  
Time TempWeatherWind HumidityBarometerVisibility
12:00 PM
Tue, Mar 31
-11 °FPassing clouds.2 mph63%29.94 "Hg30 mi
11:00 AM-11 °FPassing clouds.2 mph63%29.94 "Hg30 mi
10:00 AM-15 °FPassing clouds.5 mph69%29.93 "Hg30 mi
9:00 AM-18 °FSunny.No wind69%29.93 "Hg30 mi
8:00 AM-22 °FSunny.No wind75%29.93 "Hg30 mi
7:00 AM-26 °FSunny.No wind75%29.91 "Hg25 mi
6:00 AM-24 °FClear.No wind75%29.90 "Hg25 mi
5:00 AM-24 °FClear.2 mph68%29.89 "Hg15 mi
4:00 AM-22 °FClear.No wind68%29.88 "Hg15 mi
3:00 AM-20 °FClear.5 mph68%29.86 "Hg15 mi
2:00 AM-24 °FClear.2 mph68%29.86 "Hg15 mi
1:00 AM-20 °FClear.5 mph68%29.85 "Hg15 mi
12:00 AM-22 °FClear.3 mph75%29.85 "Hg15 mi
11:00 PM
Mon, Mar 30
-20 °FClear.3 mph75%29.84 "Hg15 mi
10:00 PM-20 °FClear.6 mph75%29.83 "Hg15 mi
9:00 PM-18 °FClear.2 mph69%29.83 "Hg15 mi
8:00 PM-17 °FSunny.No wind69%29.80 "Hg15 mi
7:00 PM-13 °FSunny.3 mph69%29.79 "Hg30 mi
6:00 PM-11 °FSunny.6 mph63%29.78 "Hg30 mi
5:00 PM-9 °FSunny.5 mph64%29.75 "Hg30 mi
4:00 PM-11 °FSunny.2 mph70%29.74 "Hg30 mi
3:00 PM-11 °FSunny.2 mph63%29.73 "Hg30 mi
2:00 PM-13 °FSunny.5 mph69%29.71 "Hg30 mi
1:00 PM-13 °FSunny.3 mph63%29.71 "Hg30 mi
Weather by CustomWeather, © 2015

See weather overviewHow to use our weather pages